Vorticity
5 6 6 7 6 4 4 5 7 8 6 6 7 9 8 7 7 6 6 7 7 8 8 7 7 7 8 8 8 8 7 7 7 6 6 6 6 5 6 8 8 7
5 6 6 7 8 6 4 5 6 6 6 7 7 7 7 7 8 6 6 7 7 7 7 7 7 7 8 8 8 9 8 8 10 8 6 7 7 7 6 6 7 8
5 6 5 6 8 6 5 7 6 5 6 7 6 6 6 7 8 6 6 8 7 7 7 6 7 7 8 8 8 8 7 7 9 8 7 8 8 8 8 7 8 8
6 6 5 6 7 6 7 9 8 6 6 4 5 7 7 6 7 6 7 8 7 7 7 6 6 6 6 7 7 8 8 7 8 8 8 8 7 7 8 7 8 9
5 5 5 6 6 6 8 10 10 9 8 6 6 6 7 6 6 6 6 6 7 7 6 5 7 7 6 6 6 6 7 7 8 9 9 9 9 8 7 6 7 9
4 4 4 4 4 4 6 7 8 9 9 9 8 6 6 6 5 5 4 4 6 7 6 6 6 6 7 6 6 7 7 6 7 7 8 8 10 10 10 9 7 7
5 5 4 4 4 3 3 3 4 7 9 10 10 9 8 7 6 6 6 6 5 4 6 7 6 6 6 6 7 7 6 7 7 7 6 6 7 8 9 10 9 9
8 7 7 7 7 5 4 4 2 3 4 5 8 11 11 10 8 7 8 8 7 5 4 4 5 6 6 6 6 5 5 6 6 6 7 6 7 7 7 7 8 10
8 8 8 8 8 7 6 6 5 4 3 2 4 6 8 10 10 9 9 8 7 7 6 5 4 4 3 4 4 3 4 6 6 6 7 6 6 7 7 7 6 7
9 8 8 7 7 7 6 6 7 6 5 4 3 3 3 6 8 9 10 9 7 7 7 7 6 4 3 4 5 5 5 5 4 4 6 6 6 6 6 6 6 7
11 9 9 8 6 7 7 8 7 6 7 6 5 6 4 4 5 5 8 10 10 8 7 8 7 6 6 5 5 5 5 5 5 4 5 6 5 6 6 6 7 7
11 10 11 10 9 9 8 9 10 8 7 7 6 7 8 7 6 4 5 7 8 9 8 8 7 6 7 7 6 6 5 5 5 5 5 6 6 5 5 6 6 6
9 10 9 9 8 8 9 10 12 11 9 8 7 7 7 8 9 7 7 7 6 7 8 9 10 9 7 6 6 6 6 7 7 5 4 4 4 5 6 5 5 6
6 8 8 9 8 8 9 9 10 11 12 11 9 8 8 10 12 12 11 10 8 8 8 7 7 8 9 10 9 8 7 7 7 7 6 4 4 4 5 4 5 7
5 7 7 8 7 7 8 8 10 12 13 13 11 9 8 8 10 11 11 10 10 11 12 12 11 8 6 6 8 9 9 8 7 7 6 6 6 6 4 4 5 7
6 9 11 10 9 10 8 7 9 10 11 13 11 10 10 8 8 8 8 8 8 8 9 10 11 11 8 5 5 7 8 8 8 7 6 6 6 6 5 6 6 4
5 6 8 8 7 10 10 8 8 8 9 10 10 10 9 7 7 6 5 4 3 4 5 6 8 9 9 7 5 5 7 9 8 7 7 6 5 6 6 5 5 5
7 6 5 4 1 1 5 7 8 7 7 7 7 7 5 4 4 3 2 1 -1 -0 3 6 7 7 7 8 7 6 5 6 7 8 9 9 7 7 7 5 4 5
4 4 3 3 1 1 3 5 6 7 7 4 3 3 3 3 3 2 2 3 3 5 7 7 7 6 6 7 8 8 7 7 8 7 7 10 11 9 7 7 7 5
6 7 6 4 3 3 3 3 4 6 6 5 3 4 4 4 5 6 7 6 2 3 6 9 9 6 4 6 8 8 8 10 12 10 6 6 10 11 9 7 7 4
2 5 6 5 4 3 2 4 5 6 7 5 4 4 3 3 4 5 6 4 -1 -2 1 4 6 5 5 9 12 12 9 8 9 11 11 7 5 9 12 10 9 8
16 16 14 9 4 3 4 4 2 4 7 7 5 2 -1 0 3 4 6 5 2 4 5 3 3 4 5 9 13 14 14 16 12 7 8 10 8 6 9 10 10 9
22 27 32 28 15 6 4 5 5 5 6 7 7 3 -2 -1 3 5 5 3 3 7 8 5 6 7 6 7 8 5 6 13 16 11 8 11 11 7 7 9 10 9
11 17 30 40 36 23 9 1 0 1 3 7 8 3 -2 0 4 5 6 8 11 14 14 13 11 10 8 7 3 2 4 8 11 12 11 11 11 9 8 8 8 9
12 11 16 25 37 43 35 19 8 3 4 9 9 6 5 7 8 8 8 12 16 17 20 23 17 8 8 12 11 9 10 9 7 8 13 16 16 13 9 8 7 7
11 11 10 10 17 31 39 40 34 27 24 23 20 19 18 17 17 15 12 14 13 10 11 13 10 7 5 9 15 14 11 13 13 7 8 19 25 19 9 6 6 5
Height
5955 5956 5957 5957 5958 5958 5959 5959 5960 5960 5961 5962 5963 5962 5962 5963 5963 5963 5964 5964 5964 5965 5965 5965 5965 5966 5966 5966 5966 5967 5967 5967 5968 5968 5968 5968 5969 5969 5969 5970 5970 5970
5954 5955 5956 5957 5957 5958 5958 5959 5960 5960 5961 5962 5962 5962 5962 5962 5963 5963 5963 5963 5964 5964 5964 5965 5965 5965 5965 5966 5966 5966 5967 5967 5967 5967 5967 5968 5968 5968 5968 5969 5969 5969
5953 5954 5955 5956 5956 5957 5958 5959 5959 5960 5961 5961 5962 5962 5962 5962 5962 5962 5963 5963 5963 5963 5964 5964 5964 5964 5964 5965 5965 5966 5966 5966 5967 5967 5967 5967 5967 5967 5968 5968 5969 5969
5952 5953 5954 5955 5956 5957 5958 5958 5959 5959 5960 5961 5961 5961 5961 5962 5962 5962 5962 5963 5963 5963 5963 5963 5963 5963 5964 5964 5964 5965 5965 5965 5966 5966 5966 5966 5966 5966 5967 5967 5967 5968
5951 5952 5953 5954 5955 5956 5957 5957 5958 5958 5959 5959 5960 5960 5960 5960 5961 5961 5962 5962 5962 5962 5962 5962 5963 5963 5963 5963 5963 5964 5964 5964 5965 5965 5965 5965 5965 5965 5965 5965 5966 5966
5949 5950 5952 5953 5954 5954 5955 5956 5957 5957 5958 5958 5958 5958 5959 5959 5959 5960 5961 5961 5961 5961 5961 5962 5962 5962 5962 5962 5962 5963 5963 5963 5963 5964 5964 5964 5964 5964 5964 5964 5964 5965
5948 5949 5950 5951 5952 5953 5953 5954 5955 5956 5957 5957 5957 5957 5957 5958 5958 5959 5959 5960 5960 5960 5961 5961 5961 5961 5961 5961 5961 5961 5962 5962 5962 5962 5962 5962 5963 5963 5963 5963 5963 5963
5946 5947 5948 5949 5950 5951 5951 5952 5953 5954 5955 5955 5955 5955 5956 5956 5957 5958 5958 5958 5959 5959 5959 5960 5960 5960 5960 5960 5960 5960 5960 5960 5961 5961 5961 5961 5962 5962 5962 5962 5962 5961
5944 5945 5946 5947 5947 5948 5949 5950 5951 5952 5953 5953 5954 5954 5954 5955 5955 5956 5956 5957 5957 5958 5958 5958 5958 5958 5959 5959 5959 5959 5959 5959 5959 5960 5960 5960 5961 5961 5961 5961 5960 5960
5942 5943 5944 5945 5945 5946 5946 5947 5948 5949 5950 5951 5952 5952 5953 5954 5954 5954 5955 5955 5956 5956 5956 5957 5957 5957 5957 5957 5958 5958 5958 5958 5958 5959 5959 5959 5959 5960 5960 5960 5960 5960
5940 5941 5942 5943 5943 5944 5944 5945 5946 5947 5948 5948 5949 5950 5951 5952 5953 5953 5953 5954 5954 5954 5955 5955 5956 5956 5956 5956 5956 5957 5957 5957 5958 5958 5958 5958 5958 5958 5958 5958 5959 5959
5937 5938 5939 5940 5940 5941 5942 5942 5943 5944 5945 5946 5947 5948 5949 5950 5951 5952 5952 5952 5953 5953 5953 5954 5954 5954 5954 5955 5955 5955 5955 5956 5956 5956 5957 5957 5957 5956 5957 5957 5957 5958
5935 5936 5937 5937 5938 5938 5939 5940 5941 5942 5943 5944 5945 5946 5947 5948 5949 5949 5950 5950 5951 5952 5952 5952 5953 5953 5953 5954 5954 5954 5954 5954 5954 5954 5955 5955 5955 5955 5956 5956 5956 5956
5933 5934 5934 5935 5935 5936 5937 5938 5939 5939 5941 5942 5943 5943 5944 5945 5946 5947 5947 5948 5949 5950 5951 5951 5952 5952 5952 5952 5952 5953 5953 5953 5953 5953 5953 5953 5954 5954 5955 5956 5956 5956
5930 5931 5932 5932 5933 5934 5934 5935 5937 5938 5939 5940 5940 5941 5942 5943 5944 5944 5945 5946 5947 5947 5948 5949 5950 5950 5950 5950 5950 5950 5951 5951 5951 5951 5950 5951 5951 5952 5955 5956 5956 5955
5928 5929 5931 5932 5932 5933 5933 5934 5935 5936 5937 5938 5938 5939 5940 5941 5941 5942 5943 5944 5945 5945 5945 5946 5947 5947 5947 5947 5948 5948 5949 5949 5949 5948 5948 5949 5949 5950 5952 5954 5953 5952
5927 5928 5929 5931 5932 5932 5933 5933 5934 5935 5935 5936 5937 5937 5938 5939 5939 5939 5941 5942 5942 5943 5943 5943 5944 5944 5944 5945 5945 5945 5946 5946 5946 5946 5946 5946 5947 5948 5950 5950 5950 5949
5926 5926 5926 5927 5928 5929 5931 5932 5933 5933 5934 5934 5935 5936 5936 5937 5937 5938 5939 5939 5940 5941 5941 5941 5941 5942 5942 5942 5942 5943 5943 5943 5944 5944 5944 5944 5946 5946 5947 5946 5946 5946
5922 5924 5924 5925 5925 5925 5927 5929 5930 5931 5931 5931 5932 5933 5934 5934 5934 5936 5936 5936 5937 5938 5939 5939 5939 5939 5939 5940 5940 5939 5940 5940 5941 5941 5941 5943 5944 5944 5943 5943 5943 5943
5918 5920 5921 5922 5922 5922 5924 5925 5927 5927 5928 5928 5929 5930 5931 5931 5931 5932 5933 5933 5934 5935 5936 5936 5936 5936 5936 5936 5936 5936 5936 5937 5937 5938 5939 5940 5940 5940 5940 5940 5940 5941
5914 5915 5916 5918 5918 5919 5921 5922 5923 5923 5924 5925 5926 5927 5927 5927 5928 5929 5929 5930 5931 5931 5931 5932 5932 5932 5932 5933 5933 5933 5932 5933 5934 5935 5935 5936 5937 5937 5937 5936 5936 5937
5909 5910 5911 5912 5913 5915 5916 5918 5918 5919 5920 5921 5922 5922 5923 5923 5924 5925 5925 5926 5926 5926 5927 5928 5928 5928 5928 5928 5929 5929 5928 5929 5930 5931 5931 5932 5933 5933 5933 5933 5933 5933
5903 5904 5905 5906 5907 5909 5911 5913 5914 5915 5916 5916 5917 5918 5919 5920 5920 5920 5920 5920 5920 5921 5923 5923 5923 5923 5923 5924 5924 5925 5924 5925 5926 5926 5927 5928 5928 5929 5929 5929 5929 5929
5899 5899 5900 5901 5902 5903 5906 5908 5909 5910 5911 5912 5913 5914 5914 5915 5916 5916 5915 5915 5915 5917 5918 5918 5918 5918 5918 5918 5919 5920 5920 5921 5921 5921 5922 5922 5923 5924 5925 5925 5925 5926
5896 5896 5896 5897 5898 5899 5901 5902 5904 5905 5906 5907 5907 5908 5909 5910 5912 5912 5912 5912 5912 5912 5912 5913 5913 5913 5914 5914 5914 5915 5915 5916 5916 5916 5916 5917 5918 5919 5921 5922 5922 5922
5893 5893 5894 5894 5895 5895 5896 5897 5898 5899 5900 5901 5902 5903 5904 5905 5906 5907 5908 5909 5908 5907 5908 5909 5909 5910 5910 5910 5909 5909 5910 5911 5911 5911 5911 5912 5913 5914 5916 5917 5918 5919